This demonstration page uses our WeatherBlox Daily Observations layout. Learn more.

Left ArrowRight Arrow

40.92945, -100.16068

Hourly Observations for October 15, 2016

Temp ( °F °C ) Dew Point ( °F °C ) Humidity (%) Winds ( mph kmh ) Pressure ( in mb ) Visibility ( mi km ) Precip ( " mm )
12:15 am 00:15 Clear 63 17.1 54 12.3 74 74 S 14 22 29.62 1003 10 16 N/A
12:35 am 00:35 Clear 63 17 55 12.5 75 75 SSE 12 19 29.62 1003 10 16 N/A
12:55 am 00:55 Clear 62 16.6 55 12.5 77 77 SSE 9 15 29.65 1004 10 16 N/A
1:15 am 01:15 Clear 62 16.6 55 12.7 78 78 S 8 13 29.65 1004 10 16 N/A
1:35 am 01:35 Clear 62 16.5 55 12.8 79 79 SSE 6 9 29.68 1005 10 16 N/A
1:55 am 01:55 Clear 62 16.5 55 13 80 80 S 9 15 29.68 1005 10 16 N/A
2:15 am 02:15 Clear 61 16.2 56 13.1 82 82 S 6 9 29.68 1005 10 16 N/A
2:35 am 02:35 Clear 61 16 56 13.2 84 84 S 7 11 29.65 1004 10 16 N/A
2:55 am 02:55 Clear 60 15.5 56 13.2 86 86 SSE 8 13 29.65 1004 10 16 N/A
3:15 am 03:15 Clear 59 15.2 56 13.3 89 89 SSE 6 9 29.65 1004 10 16 N/A
3:35 am 03:35 Clear 59 15.2 56 13.5 90 90 SE 6 9 29.65 1004 10 16 N/A
3:55 am 03:55 Clear 60 15.5 57 13.7 89 89 SSE 7 11 29.65 1004 10 16 N/A
4:15 am 04:15 Partly Cloudy 59 15.1 56 13.6 91 91 N N/A 29.68 1005 10 16 N/A
4:35 am 04:35 Mostly Cloudy 58 14.5 56 13.3 93 93 NNW 3 6 29.68 1005 7 11 N/A
4:55 am 04:55 Cloudy 58 14.6 56 13.2 91 91 N 5 7 29.68 1005 7 11 N/A
5:15 am 05:15 Cloudy 58 14.3 55 13 92 92 ESE 5 7 29.68 1005 7 11 N/A
5:35 am 05:35 Cloudy 58 14.3 56 13.1 93 93 SE 7 11 29.65 1004 7 11 N/A
5:55 am 05:55 Cloudy 59 15 57 14.1 94 94 SE 8 13 29.65 1004 7 11 N/A
6:15 am 06:15 Cloudy 60 15.6 58 14.4 93 93 SSE 8 13 29.65 1004 7 11 N/A
6:35 am 06:35 Cloudy 61 16 58 14.7 92 92 SSE 6 9 29.65 1004 7 11 N/A
6:55 am 06:55 Cloudy 61 16 58 14.7 92 92 SE 5 7 29.65 1004 7 11 N/A
7:15 am 07:15 Cloudy 61 16.1 58 14.7 91 91 S 3 6 29.68 1005 7 11 N/A
7:35 am 07:35 Cloudy 61 16.1 58 14.7 91 91 SW 3 6 29.68 1005 7 11 N/A
7:55 am 07:55 Cloudy with Mist and Fog 61 16 58 14.6 91 91 WSW 3 6 29.68 1005 5 8 N/A
8:15 am 08:15 Cloudy with Mist and Fog 61 16.1 59 14.8 92 92 N N/A 29.71 1006 5 8 N/A
8:35 am 08:35 Cloudy with Mist and Fog 62 16.5 59 15 91 91 N N/A 29.68 1005 5 8 N/A
8:55 am 08:55 Mostly Cloudy 63 17 59 14.8 87 87 N N/A 29.71 1006 7 11 N/A
9:15 am 09:15 Cloudy 63 17 58 14.5 85 85 N N/A 29.71 1006 7 11 N/A
9:35 am 09:35 Mostly Cloudy 63 17 58 14.5 85 85 N N/A 29.71 1006 10 16 N/A
9:55 am 09:55 Mostly Cloudy 63 17.4 58 14.7 84 84 NW 7 11 29.74 1007 7 11 N/A
10:15 am 10:15 Mostly Cloudy 65 18.6 58 14.7 78 78 NW 10 17 29.71 1006 10 16 N/A
10:35 am 10:35 Partly Cloudy 64 17.7 57 13.7 78 78 NNW 12 19 29.74 1007 10 16 N/A
10:55 am 10:55 Partly Cloudy 64 18 57 14 78 78 NW 12 19 29.71 1006 10 16 N/A
11:15 am 11:15 Sunny 65 18.3 55 12.9 71 71 N 6 9 29.71 1006 10 16 N/A
11:35 am 11:35 Sunny 67 19.5 52 10.9 58 58 NNE 7 11 29.71 1006 10 16 N/A
11:55 am 11:55 Sunny 66 18.7 50 10.1 58 58 NNE 7 11 29.71 1006 10 16 N/A
12:15 pm 12:15 Sunny 69 20.6 51 10.4 52 52 NNE 8 13 29.71 1006 10 16 N/A
12:35 pm 12:35 Sunny 71 21.7 51 10.7 50 50 N 8 13 29.68 1005 10 16 N/A
12:55 pm 12:55 Sunny 73 23 48 8.7 40 40 N 8 13 29.68 1005 10 16 N/A
1:15 pm 13:15 Sunny 74 23.2 46 8 38 38 N 8 13 29.68 1005 10 16 N/A
1:35 pm 13:35 Sunny 74 23.5 45 7.3 35 35 NE 7 11 29.65 1004 10 16 N/A
1:55 pm 13:55 Sunny 75 24 45 7 34 34 N 7 11 29.65 1004 10 16 N/A
2:15 pm 14:15 Sunny 76 24.6 45 7.4 33 33 NE 6 9 29.62 1003 10 16 N/A
2:35 pm 14:35 Sunny 77 25 44 6.9 31 31 NNE 5 7 29.62 1003 10 16 N/A
2:55 pm 14:55 Sunny 78 25.8 46 7.7 32 32 N 6 9 29.62 1003 7 11 N/A
3:15 pm 15:15 Sunny 79 26 44 6.7 29 29 NNW 6 9 29.62 1003 10 16 N/A
3:35 pm 15:35 Sunny 80 26.7 44 6.8 28 28 NE 7 11 29.62 1003 7 11 N/A
3:55 pm 15:55 Sunny 80 26.6 44 6.6 28 28 NE 5 7 29.62 1003 7 11 N/A
4:15 pm 16:15 Hazy 80 26.6 44 6.7 28 28 ENE 6 9 29.62 1003 5 8 N/A
4:35 pm 16:35 Sunny 80 26.7 44 6.8 28 28 NE 7 11 29.65 1004 10 16 N/A
4:55 pm 16:55 Sunny 80 26.5 44 6.7 28 28 ENE 7 11 29.62 1003 10 16 N/A
5:15 pm 17:15 Sunny 79 26.2 44 6.6 29 29 NE 6 9 29.65 1004 10 16 N/A
5:35 pm 17:35 Sunny 78 25.6 47 8.1 33 33 ENE 6 9 29.65 1004 10 16 N/A
5:55 pm 17:55 Sunny 75 24.1 48 9.1 39 39 ENE 7 11 29.68 1005 7 11 N/A
6:15 pm 18:15 Sunny 73 23 49 9.3 42 42 ENE 6 9 29.68 1005 10 16 N/A
6:35 pm 18:35 Sunny 71 21.4 49 9.5 47 47 E 6 9 29.74 1007 7 11 N/A
6:55 pm 18:55 Hazy 65 18.6 49 9.2 55 55 ENE 7 11 29.74 1007 4 6 N/A
7:15 pm 19:15 Clear 64 17.9 46 7.9 52 52 ENE 6 9 29.77 1008 10 16 N/A
7:35 pm 19:35 Clear 62 16.4 46 7.9 57 57 E 7 11 29.77 1008 7 11 N/A
7:55 pm 19:55 Clear 63 17.2 45 7.2 52 52 E 7 11 29.77 1008 10 16 N/A
8:15 pm 20:15 Clear 62 16.5 45 7 54 54 ENE 6 9 29.77 1008 10 16 N/A
8:35 pm 20:35 Clear 61 16.1 44 6.9 55 55 ENE 5 7 29.80 1009 10 16 N/A
8:55 pm 20:55 Clear 59 14.8 44 6.7 59 59 ENE 5 7 29.83 1010 10 16 N/A
9:15 pm 21:15 Clear 58 14.6 44 6.8 60 60 E 3 6 29.83 1010 7 11 N/A
9:35 pm 21:35 Clear 58 14.2 44 6.8 61 61 E 3 6 29.83 1010 7 11 N/A
9:55 pm 21:55 Clear 57 13.9 44 6.8 63 63 N N/A 29.83 1010 10 16 N/A
10:15 pm 22:15 Mostly Cloudy with Haze 55 12.9 44 6.5 65 65 E 3 6 29.83 1010 2 3 N/A
10:35 pm 22:35 Clear 55 12.7 44 6.8 68 68 SE 3 6 29.85 1011 10 16 N/A
10:55 pm 22:55 Clear 56 13.2 44 6.7 65 65 SSE 3 6 29.85 1011 10 16 N/A
11:15 pm 23:15 Clear 55 12.6 44 6.7 68 68 E 6 9 29.83 1010 10 16 N/A
11:35 pm 23:35 Clear 54 12.3 45 7 70 70 ESE 3 6 29.85 1011 7 11 N/A
11:55 pm 23:55 Clear 53 11.9 45 7 72 72 N N/A 29.88 1012 10 16 N/A

Powered by AerisWeather